Location: Old Broadwell Mill Observatory
(33.8015°N, 85.8137°W)
Time: 14:52:29
(UTC-05:00)

Gurwin Techsat 1B - Visible Passes

Search period start: 21 August 2017 00:00
Search period end: 31 August 2017 00:00
Orbit: 812 x 814 km, 98.6° (Epoch: 21 August)

Date Brightness Start Highest point End Pass type
(mag) Time Alt. Az. Time Alt. Az. Time Alt. Az.
21 Aug 10.7 02:14:57 10° NNE 02:17:04 24° NE 02:17:04 24° NE visible
21 Aug 10.6 03:56:17 10° NNW 03:58:16 16° NW 03:58:16 16° NW visible
22 Aug 11.1 01:52:35 10° NE 01:53:53 16° NE 01:53:53 16° NE visible
22 Aug 10.3 03:32:35 10° NNW 03:35:05 22° NW 03:35:05 22° NW visible
23 Aug 10.2 03:09:19 10° N 03:11:54 27° NNW 03:11:54 27° NNW visible
24 Aug 10.3 02:46:20 10° N 02:48:43 27° N 02:48:43 27° N visible
25 Aug 10.7 02:23:34 10° NNE 02:25:33 23° NNE 02:25:33 23° NNE visible
25 Aug 10.8 04:05:35 10° NW 04:06:44 13° NW 04:06:44 13° NW visible
26 Aug 11.1 02:01:05 10° NNE 02:02:21 17° NE 02:02:21 17° NE visible
26 Aug 10.5 03:41:35 10° NNW 03:43:34 18° NW 03:43:34 18° NW visible
27 Aug 11.5 01:38:58 10° NE 01:39:10 11° NE 01:39:10 11° NE visible
27 Aug 10.4 03:18:11 10° N 03:20:22 23° NNW 03:20:22 23° NNW visible
28 Aug 10.5 02:55:05 10° N 02:57:11 24° N 02:57:11 24° N visible
29 Aug 10.8 02:32:14 10° NNE 02:34:00 22° NNE 02:34:00 22° NNE visible
30 Aug 11.1 02:09:38 10° NNE 02:10:49 17° NNE 02:10:49 17° NNE visible
30 Aug 10.7 03:50:39 10° NNW 03:52:01 15° NW 03:52:01 15° NW visible
